www.pogodaiklimat.ru

Погода и климат >> Архив погоды >> Мексика >> Culiacan


ПОГОДА в Culiacan

  • Прогноз погоды в Culiacan
  • Монитор погоды в Culiacan
  • Климат города

АРХИВ ПОГОДЫ в Culiacan

Время (UTC), дата Ветер
(напр.,м/с)
 
Видим.   Явления Облачность Т
(С)
Тd
(С)
f
(%)
Тe
(С)
Тes
(С)
Комфортность P
(гПа)
Po
(гПа)
Тmin
(С)
Tmax
(С)
R
(мм)
S
(см)
06 21.03 ЮЗ 1 16 км ясно +20.0 +16.9 82 +24 +24 комфорт 1017.3 1012.9 +14.8 +36.2
09 21.03 В 1 16 км ясно +17.7 +16.6 93 +19 +19 1016.9 1012.4
12 21.03 ЮВ 1 16 км ясно +15.7 +14.2 91 +16 +16 1016.5 1012.0 +14.6 +36.8
15 21.03 ЮВ 1 16 км ясно +18.8 +18.3 97 +21 +26 комфорт 1017.9 1013.3
18 21.03 Ю 2 16 км ясно +27.0 +19.5 64 +33 +50 очень
душно
1017.6 1013.0 +14.7 +27.3
21 21.03 ЮЗ 2 16 км ясно +32.2 +20.6 50 +39 +54 опасность
солнечного
удара
1014.9 1010.4
00 22.03 З 2 16 км ясно +31.8 +13.9 34 +33 +35 жарко 1013.2 1008.8 +14.7 +32.7
03 22.03 ЮЗ 1 16 км ясно +23.0 +16.6 67 +28 +28 душно 1015.2 1010.7
06 22.03 Ю 1 16 км ясно +19.5 +15.9 80 +23 +23 комфорт 1015.5 1011.1 +19.5 +32.7
09 22.03 В 1 16 км ясно +17.8 +16.9 94 +19 +19 1015.7 1011.2
12 22.03 В 1 16 км ясно +16.4 +15.8 96 +17 +17 1014.9 1010.4 +16.2 +31.6
15 22.03 В 1 16 км ясно +16.4 +15.8 96 +17 +22 1014.9 1010.4 +16.2 +31.6
15 23.03 В 1 16 км ясно +17.6 +17.6 100 +19 +24 1014.9 1010.3
18 23.03 Ю 1 16 км ясно +28.8 +16.1 46 +32 +52 опасность
солнечного
удара
1016.9 1012.4 +16.2 +29.1
21 23.03 Ю 1 16 км ясно +30.0 +13.4 36 +31 +49 жарко 1015.2 1010.7
00 24.03 З 1 16 км ясно +30.0 +18.0 49 +35 +37 очень
душно
1014.1 1009.7 +16.4 +32.6
06 24.03 З 1 16 км ясно +18.6 +16.4 87 +21 +21 комфорт 1017.6 1013.2 +18.5 +32.6
09 24.03 СЗ 1 16 км ясно +15.4 +14.1 92 +16 +16 1017.3 1012.8
12 24.03 СЗ 1 16 км ясно +14.2 +13.3 94 +14 +14 1017.1 1012.5 +13.9 +29.7
15 24.03 СЗ 1 16 км ясно +19.4 +12.8 66 +22 +27 комфорт 1018.8 1014.2
18 24.03 З 1 16 км ясно +29.0 +13.6 39 +31 +51 опасность
солнечного
удара
1019.4 1014.8 +13.2 +29.2
21 24.03 ЮЗ 1 16 км ясно +31.6 +14.4 35 +33 +51 опасность
солнечного
удара
1016.4 1011.8
00 25.03 ЮЗ 1 16 км ясно +31.6 +14.4 35 +33 +35 жарко 1016.4 1011.8
21 25.03 ЮЗ 2 16 км ясно +30.4 +13.4 35 +32 +47 жарко 1015.9 1014.2
00 26.03 ЮЗ 1 16 км ясно +28.6 +11.4 34 +29 +32 жарко 1014.8 1010.4 +14.0 +32.0
09 26.03 В 1 16 км ясно +15.4 +14.1 92 +16 +16 1015.7 1011.2
12 26.03 В 1 16 км ясно +13.7 +12.9 95 +14 +14 1015.4 1010.9 +12.9 +32.0
15 26.03 ЮЗ 1 16 км ясно +21.0 +15.7 72 +26 +31 душно 1016.7 1012.1
18 26.03 Ю 1 16 км ясно +26.8 +14.7 47 +29 +50 жарко 1018.6 1014.0 +12.9 +27.4
21 26.03 ЮЗ 1 16 км ясно +30.0 +7.9 25 +29 +47 жарко 1015.8 1011.2
00 27.03 ЮЗ 1 16 км ясно +30.4 +5.9 21 +29 +31 жарко 1013.7 1009.3 +12.9 +32.2
06 27.03 Ю 1 16 км ясно +17.4 +15.8 90 +18 +18 1015.6 1011.1 +16.8 +31.7
09 27.03 В 1 16 км ясно +14.4 +11.3 82 +15 +15 1014.6 1010.1
15 27.03 В 1 16 км ясно +21.4 +10.6 50 +23 +28 комфорт 1015.9 1011.3
18 27.03 ЮЗ 1 16 км ясно +29.2 +7.0 25 +28 +49 жарко 1016.0 1011.4 +11.2 +29.4
21 27.03 ЮЗ 1 16 км ясно +31.6 +10.3 27 +31 +49 жарко 1013.4 1008.8
00 28.03 З 1 16 км ясно +29.8 +11.2 32 +30 +33 жарко 1011.8 1007.4 +14.4 +32.2

 

Местоположение метеостанции Culiacan (Мексика): широта 24.80 долгота -107.40 высота над уровнем моря 39 м.

В архиве по умолчанию представлена погода в Culiacan за последнюю неделю. Архивные данные за месяц целиком и за предыдущие месяцы, начиная с января 2011 года, Вы можете получить, выбрав интересующий диапазон дат из раскрывающегося списка и нажав кнопку "Ввод!".

Внимание! Время в таблицах - всемирное. Для получения местного времени необходимо прибавить поправку, которая в Culiacan равна -7 ч.

Смотрите также архив погоды в соседних городах и на ближайших метеорологических станциях:

Погода в Tepehuanes (Мексика) (180 км)
Погода в Colonia Juan Carras-Co (Мексика) (205 км)
Погода в Choix (Мексика) (229 км)
Погода в Durango (Мексика) (296 км)
Погода в Hidalgo del Parral (Мексика) (298 км)
Погода в La Paz (Мексика) (302 км)
Погода в Ciudad Obregon (Мексика) (377 км)
Погода в Sombrerete (Мексика) (407 км)
Погода в Torreon (Мексика) (411 км)
Погода в Loreto (Мексика) (415 км)

Пояснения к столбцам:

Ветер - указаны скорость ветра в м/с - средняя за 10 мин, порывы в срок и между сроками (в фигурных скобках) и направление, откуда дует ветер: С - северный, СВ - северо-восточный, В - восточный, ЮВ - юго-восточный, Ю - южный, ЮЗ - юго-западный, З - западный, СЗ - северо-западный.
Видимость - горизонтальная дальность видимости в метрах или километрах. При видимости от 1 до 10 км при отсутствии осадков обычно наблюдается дымка, при ухудшении видимости до 1 км и менее - туман. В сухую погоду видимость может ухудшаться дымом, пылью или мглою.
Явления - указаны атмосферные явления, наблюдавшиеся в срок или в последний час перед сроком; фигурными скобками обозначены явления, наблюдавшиеся между сроками (за 1-3 часа до срока); квадратными скобками обозначены град или гололедные отложения с указанием их диаметра в мм.
Облачность - указаны через наклонную черту общая и нижняя облачность в баллах и высота нижней границы облаков в метрах; квадратными скобками обозначены формы облаков: Ci - перистые, Cs - перисто-слоистые, Cc - перисто-кучевые, Ac - высококучевые, As - высокослоистые, Sc - слоисто-кучевые, Ns - слоисто-дождевые, Cu - кучевые, Cb - кучево-дождевые. Подробнее классификацию облаков см. в Атласе облаков (PDF).
T - Температура воздуха - температура, измеренная на высоте 2 м над землей.
Td - Температура точки росы - температура, при понижении до которой содержащийся в воздухе водяной пар достигнет насыщения.
f - Относительная влажность воздуха - влажноcть воздуха, измеренная на высоте 2 м над землей.
Te - Эффективная температура - температура, которую ощущает одетый по сезону человек в тени. Характеристика душности погоды. При расчете учитывается влияние влажности воздуха и скорости ветра на теплоощущения человека.
Tes - Эффективная температура на солнце - температура, которую ощущает человек, с поправкой на солнечный нагрев. Характеристика знойности погоды. Зависит от высоты солнца над горизонтом, облачности и скорости ветра. Ночью, в пасмурную погоду, а также при ветре 12 м/с и более поправка равна нулю.
P - Атмосферное давление - приведенное к уровню моря атмосферное давление.
Po - Атмосферное давление - измеренное на уровне метеостанции атмосферное давление.
Tmin - Минимальная температура - минимум температуры воздуха на высоте 2 м над землей.
Tmax - Максимальная температура - максимум температуры воздуха на высоте 2 м над землей.
R - Количество осадков - Количество выпавших осадков, мм. При наведении курсора мыши на число - период времени, за который выпало указанное количество осадков.
S - Снежный покров - Высота снежного покрова, см. При наведении курсора мыши на число - состояние снежного покрова и степень покрытия местности в баллах.